Location: Asheville, NC
(35.6000°N, 82.5500°W)
Time: 12:05:07

AO-7 - Pass Details

Date: 13 March 2018
Orbit: 1440 x 1459 km, 101.7° (Epoch: 24 March)

Event Time Altitude Azimuth Distance (km) Brightness Sun altitude
Rises 04:14:00 0° 25° (NNE) 4,541 ? -41.6°
Reaches altitude 10° 04:17:06 10° 34° (NNE) 3,558 ? -41.1°
Maximum altitude 04:24:38 38° 99° (E) 2,073 ? -39.8°
Enters shadow 04:27:58 28° 142° (SE) 2,437 ? -39.2°
